Pula, Croatia

7:46 AM CEST on April 26, 2017 (GMT +0200)
Pula

Weather History for LDPL - April, 2013

Change the Weather History Date:

Saturday, April 27, 2013

  Actual Average Record
Temperature  
Mean Temperature 62 °F -  
Max Temperature 68 °F - - ()
Min Temperature 55 °F - - ()
Degree Days  
Heating Degree Days 4    
Growing Degree Days 12 (Base 50)    
Moisture  
Dew Point 57 °F    
Average Humidity 85    
Maximum Humidity 100    
Minimum Humidity 56    
Precipitation  
Precipitation 0.02 in - - ()
Sea Level Pressure  
Sea Level Pressure 29.81 in    
Wind  
Wind Speed 7 mph ()    
Max Wind Speed 18 mph    
Max Gust Speed 21 mph    
Visibility 7.6 miles    
Events Rain    
T = Trace of Precipitation, MM = Missing Value Source: Averaged Metar Reports

Daily Weather History Graph

Daily Weather History Graph

Search for Another Location

Airport or City:

Trip Planner

Search our weather history database for the weather conditions in past years. The results will help you decide how hot, cold, wet, or windy it might be!

Date:

Astronomy

Apr. 27, 2013 Rise Set
Actual Time 5:59 AM CEST 8:04 PM CEST
Civil Twilight 5:28 AM CEST 8:36 PM CEST
Nautical Twilight 4:49 AM CEST 9:16 PM CEST
Astronomical Twilight 4:05 AM CEST 9:59 PM CEST
Moon 10:19 PM CEST (4/27) 6:59 AM CEST (4/27)
Length of Visible Light 15h 08m
Length of Day
14h 04m
Waning Gibbous, 96% of the Moon is Illuminated
Apr 27
Waning Gibbous
May 2
Last Quarter
May 10
New
May 18
First Quarter
May 25
Full

Hourly Weather History & Observations

Time (CEST) Temp. Dew Point Humidity Pressure Visibility Wind Dir Wind Speed Gust Speed Precip Events Conditions
12:00 AM 60.8 °F 55.4 °F 82% 29.92 in 6.2 mi ESE 6.9 mph - N/A   Partly Cloudy
12:30 AM 60.8 °F 53.6 °F 77% 29.92 in 6.2 mi ESE 6.9 mph - N/A   Partly Cloudy
1:00 AM 59.0 °F 53.6 °F 82% 29.92 in 6.2 mi ESE 5.8 mph - N/A Rain Light Rain
1:30 AM 59.0 °F 55.4 °F 88% 29.89 in 6.2 mi East 8.1 mph - N/A Rain Light Rain
2:00 AM 58 °F 55 °F 88% 29.89 in 16 mi East 6.7 mph - - Rain Light Rain
2:00 AM 59.0 °F 55.4 °F 88% 29.89 in 6.2 mi East 8.1 mph - N/A   Scattered Clouds
2:30 AM 59.0 °F 55.4 °F 88% 29.86 in 6.2 mi East 4.6 mph - N/A   Scattered Clouds
3:00 AM 59.0 °F 57.2 °F 94% 29.86 in 6.2 mi Variable 3.5 mph - N/A   Scattered Clouds
3:30 AM 59.0 °F 57.2 °F 94% 29.83 in 6.2 mi East 4.6 mph - N/A   Scattered Clouds
4:00 AM 59.0 °F 57.2 °F 94% 29.83 in 6.2 mi ESE 4.6 mph - N/A   Partly Cloudy
4:30 AM 59.0 °F 57.2 °F 94% 29.83 in 6.2 mi ESE 4.6 mph - N/A   Partly Cloudy
5:00 AM 58 °F 56 °F 92% 29.83 in 16 mi ESE 4.5 mph - -   Partly Cloudy
5:00 AM 59.0 °F 57.2 °F 94% 29.83 in 6.2 mi ESE 4.6 mph - N/A   Partly Cloudy
5:30 AM 57.2 °F 55.4 °F 94% 29.83 in 6.2 mi SE 4.6 mph - N/A   Partly Cloudy
6:00 AM 56 °F 55 °F 95% 29.83 in 16 mi ESE 4.5 mph - -   Scattered Clouds
6:00 AM 57.2 °F 55.4 °F 94% 29.83 in 6.2 mi Variable 2.3 mph - N/A   Partly Cloudy
6:30 AM 57.2 °F 55.4 °F 94% 29.80 in 6.2 mi Variable 3.5 mph - N/A   Partly Cloudy
7:00 AM 58 °F 57 °F 94% 29.82 in 9 mi SE 4.5 mph - -   Scattered Clouds
7:00 AM 57.2 °F 57.2 °F 100% 29.80 in 6.2 mi Variable 3.5 mph - N/A   Partly Cloudy
7:30 AM 59.0 °F 57.2 °F 94% 29.80 in 6.2 mi Variable 1.2 mph - N/A   Partly Cloudy
8:00 AM 61 °F 60 °F 93% 29.82 in 6 mi SE 4.5 mph - -   Scattered Clouds
8:00 AM 60.8 °F 59.0 °F 94% 29.80 in 6.2 mi SE 4.6 mph - N/A   Partly Cloudy
8:30 AM 62.6 °F 60.8 °F 94% 29.80 in 6.2 mi SSE 4.6 mph - N/A   Partly Cloudy
9:00 AM 64 °F 59 °F 80% 29.82 in 9 mi SSE 6.7 mph - -   Scattered Clouds
9:00 AM 64.4 °F 59.0 °F 83% 29.80 in 6.2 mi SSE 5.8 mph - N/A   Partly Cloudy
9:30 AM 66.2 °F 59.0 °F 78% 29.80 in 6.2 mi SSE 6.9 mph - N/A   Partly Cloudy
10:00 AM 67 °F 59 °F 68% 29.81 in 12 mi SSE 6.7 mph - -   Scattered Clouds
10:00 AM 66.2 °F 59.0 °F 78% 29.80 in 6.2 mi SSE 5.8 mph - N/A   Partly Cloudy
10:30 AM 66.2 °F 55.4 °F 68% 29.80 in 6.2 mi South 8.1 mph - N/A   Partly Cloudy
11:00 AM 67 °F 55 °F 56% 29.81 in 16 mi South 8.9 mph - -   Overcast
11:00 AM 66.2 °F 55.4 °F 68% 29.80 in - South 8.1 mph - N/A   Clear
11:30 AM 68.0 °F 53.6 °F 60% 29.80 in - South 4.6 mph - N/A   Clear
12:00 PM 65 °F 58 °F 73% 29.82 in 16 mi ESE 8.9 mph - -   Overcast
12:00 PM 64.4 °F 59.0 °F 83% 29.80 in 6.2 mi ESE 8.1 mph - N/A   Partly Cloudy
12:30 PM 64.4 °F 59.0 °F 83% 29.80 in 6.2 mi ESE 8.1 mph - N/A   Scattered Clouds
1:00 PM 64 °F 58 °F 73% 29.81 in 16 mi SE 8.9 mph - -   Overcast
1:00 PM 64.4 °F 57.2 °F 77% 29.80 in 6.2 mi SE 8.1 mph - N/A   Partly Cloudy
1:30 PM 64.4 °F 57.2 °F 77% 29.80 in - SSE 8.1 mph - N/A   Clear
2:00 PM 65 °F 57 °F 68% 29.80 in 16 mi SE 8.9 mph - -   Overcast
2:00 PM 64.4 °F 57.2 °F 77% 29.80 in - SE 9.2 mph - N/A   Clear
2:30 PM 64.4 °F 57.2 °F 77% 29.80 in - ESE 8.1 mph - N/A   Clear
3:00 PM 64 °F 58 °F 75% 29.79 in 11 mi SE 11.2 mph - -   Overcast
3:00 PM 64.4 °F 59.0 °F 83% 29.77 in 6.2 mi SE 9.2 mph - N/A   Partly Cloudy
3:30 PM 64.4 °F 59.0 °F 83% 29.77 in 6.2 mi SE 8.1 mph - N/A   Scattered Clouds
4:00 PM 63 °F 59 °F 82% 29.78 in 7 mi SE 13.4 mph - -   Overcast
4:00 PM 62.6 °F 59.0 °F 88% 29.77 in 6.2 mi SE 11.5 mph - N/A   Scattered Clouds
4:30 PM 62.6 °F 59.0 °F 88% 29.77 in 6.2 mi ESE 12.7 mph - N/A   Mostly Cloudy
5:00 PM 62 °F 58 °F 84% 29.77 in 6 mi SE 11.2 mph - -   Overcast
5:00 PM 60.8 °F 59.0 °F 94% 29.77 in 6.2 mi SE 11.5 mph - N/A   Mostly Cloudy
5:30 PM 60.8 °F 59.0 °F 94% 29.77 in 6.2 mi SE 13.8 mph - N/A   Mostly Cloudy
6:00 PM 61 °F 57 °F 84% 29.78 in 6 mi SSE 17.9 mph - -   Overcast
6:00 PM 60.8 °F 57.2 °F 88% 29.77 in 6.2 mi SSE 15.0 mph - N/A   Mostly Cloudy
6:30 PM 60.8 °F 57.2 °F 88% 29.77 in 6.2 mi SE 16.1 mph - N/A   Mostly Cloudy
7:00 PM 60 °F 57 °F 87% 29.77 in 6 mi SE 15.7 mph - -   Overcast
7:00 PM 60.8 °F 57.2 °F 88% 29.77 in 6.2 mi SE 11.5 mph - N/A   Mostly Cloudy
7:30 PM 60.8 °F 57.2 °F 88% 29.77 in 6.2 mi SE 9.2 mph 20.7 mph N/A   Mostly Cloudy
8:00 PM 60 °F 57 °F 88% 29.77 in 6 mi SE 8.9 mph - -   Overcast
8:00 PM 59.0 °F 57.2 °F 94% 29.77 in 6.2 mi SE 8.1 mph - N/A   Mostly Cloudy
8:30 PM 59.0 °F 57.2 °F 94% 29.77 in 6.2 mi SSE 9.2 mph - N/A   Mostly Cloudy
9:00 PM 60.8 °F 57.2 °F 88% 29.77 in 6.2 mi SSE 6.9 mph - N/A   Overcast
9:30 PM 59.0 °F 57.2 °F 94% 29.77 in 6.2 mi SE 8.1 mph - N/A Rain Light Rain
10:00 PM 59.0 °F 57.2 °F 94% 29.80 in 6.2 mi SSE 5.8 mph - N/A   Overcast
10:30 PM 59.0 °F 57.2 °F 94% 29.80 in 6.2 mi Variable 6.9 mph - N/A   Overcast
11:00 PM 60 °F 57 °F 87% 29.81 in 6 mi SSE 4.5 mph - -   Partly Cloudy
11:00 PM 59.0 °F 57.2 °F 94% 29.80 in 6.2 mi SSE 4.6 mph - N/A   Overcast
11:30 PM 59.0 °F 57.2 °F 94% 29.80 in 6.2 mi Variable 5.8 mph - N/A   Overcast